| time (UTC) | temp F | wind direction | speed MPH | gust MPH | rain 1hr in | rain 24hr in | rain mn in | humidity % | barometer mb |
| 20260902160156 | 78 | 52 | 4.0 | 9.0 | 0.00 | 0.00 | 0.00 | 27 | 1010.8 |
| 20260902155138 | 78 | 76 | 4.0 | 9.0 | 0.00 | 0.00 | 0.00 | 27 | 1010.9 |
| 20260902154149 | 76 | 50 | 3.0 | 6.0 | 0.00 | 0.00 | 0.00 | 25 | 1011.1 |
| 20260902153147 | 74 | 187 | 0.0 | 2.0 | 0.00 | 0.00 | 0.00 | 26 | 1011.1 |
| 20260902152151 | 72 | 187 | 0.0 | 3.0 | 0.00 | 0.00 | 0.00 | 25 | 1011.1 |
| 20260902151140 | 72 | 187 | 1.0 | 4.0 | 0.00 | 0.00 | 0.00 | 27 | 1011.1 |
| 20260902150150 | 71 | 187 | 0.0 | 5.0 | 0.00 | 0.00 | 0.00 | 29 | 1011.1 |
| 20260902145148 | 70 | 188 | 2.0 | 7.0 | 0.00 | 0.00 | 0.00 | 32 | 1011.1 |
| 20260902144154 | 69 | 189 | 4.0 | 7.0 | 0.00 | 0.00 | 0.00 | 32 | 1011.1 |
| 20260902143139 | 68 | 189 | 2.0 | 9.0 | 0.00 | 0.00 | 0.00 | 34 | 1011.1 |
| 20260902142143 | 67 | 183 | 4.0 | 8.0 | 0.00 | 0.00 | 0.00 | 35 | 1010.9 |
| 20260902141206 | 67 | 208 | 4.0 | 8.0 | 0.00 | 0.00 | 0.00 | 37 | 1010.9 |
| 20260902140138 | 66 | 197 | 6.0 | 12.0 | 0.00 | 0.00 | 0.00 | 38 | 1010.9 |
| 20260902135139 | 64 | 178 | 5.0 | 9.0 | 0.00 | 0.00 | 0.00 | 42 | 1010.8 |
| 20260902134152 | 64 | 179 | 6.0 | 11.0 | 0.00 | 0.00 | 0.00 | 43 | 1010.9 |
| 20260902133136 | 64 | 166 | 8.0 | 11.0 | 0.00 | 0.00 | 0.00 | 43 | 1010.9 |
| 20260902132142 | 64 | 191 | 9.0 | 18.0 | 0.00 | 0.00 | 0.00 | 43 | 1010.6 |
| 20260902131201 | 63 | 187 | 7.0 | 10.0 | 0.00 | 0.00 | 0.00 | 46 | 1010.5 |
| 20260902130145 | 62 | 165 | 5.0 | 7.0 | 0.00 | 0.00 | 0.00 | 46 | 1010.5 |
| 20260902125150 | 62 | 192 | 6.0 | 8.0 | 0.00 | 0.00 | 0.00 | 47 | 1010.5 |
| 20260902124151 | 62 | 219 | 7.0 | 10.0 | 0.00 | 0.00 | 0.00 | 47 | 1010.2 |
| 20260902123158 | 62 | 194 | 6.0 | 9.0 | 0.00 | 0.00 | 0.00 | 47 | 1010.2 |
| 20260902122143 | 63 | 200 | 7.0 | 10.0 | 0.00 | 0.00 | 0.00 | 47 | 1010.1 |
| 20260902121144 | 61 | 208 | 6.0 | 8.0 | 0.00 | 0.00 | 0.00 | 50 | 1010.0 |
| 20260902120150 | 59 | 166 | 4.0 | 7.0 | 0.00 | 0.00 | 0.00 | 57 | 1010.0 |
| 20260902115153 | 58 | 166 | 5.0 | 7.0 | 0.00 | 0.00 | 0.00 | 59 | 1009.9 |
| 20260902114137 | 58 | 169 | 5.0 | 8.0 | 0.00 | 0.00 | 0.00 | 59 | 1009.9 |
| 20260902113203 | 59 | 167 | 5.0 | 6.0 | 0.00 | 0.00 | 0.00 | 57 | 1009.9 |
| 20260902112210 | 60 | 167 | 4.0 | 6.0 | 0.00 | 0.00 | 0.00 | 56 | 1009.9 |
| 20260902111152 | 60 | 167 | 5.0 | 8.0 | 0.00 | 0.00 | 0.00 | 55 | 1009.9 |
| 20260902110154 | 61 | 162 | 4.0 | 7.0 | 0.00 | 0.00 | 0.00 | 54 | 1009.9 |
| 20260902105158 | 63 | 161 | 4.0 | 8.0 | 0.00 | 0.00 | 0.00 | 49 | 1009.9 |
| 20260902104137 | 64 | 173 | 5.0 | 8.0 | 0.00 | 0.00 | 0.00 | 47 | 1009.7 |
| 20260902103144 | 64 | 182 | 5.0 | 7.0 | 0.00 | 0.00 | 0.00 | 46 | 1009.7 |
| 20260902102147 | 64 | 188 | 5.0 | 7.0 | 0.00 | 0.00 | 0.00 | 46 | 1009.5 |
| 20260902101149 | 64 | 192 | 5.0 | 7.0 | 0.00 | 0.00 | 0.00 | 46 | 1009.8 |
| 20260902100211 | 64 | 199 | 3.0 | 7.0 | 0.00 | 0.00 | 0.00 | 46 | 1009.8 |
| 20260902095150 | 64 | 200 | 5.0 | 7.0 | 0.00 | 0.00 | 0.00 | 46 | 1009.9 |
| 20260902094155 | 63 | 194 | 6.0 | 8.0 | 0.00 | 0.00 | 0.00 | 48 | 1009.9 |
| 20260902093142 | 63 | 167 | 4.0 | 6.0 | 0.00 | 0.00 | 0.00 | 50 | 1009.9 |
| 20260902092146 | 62 | 167 | 4.0 | 5.0 | 0.00 | 0.00 | 0.00 | 52 | 1009.9 |
| 20260902091149 | 62 | 167 | 2.0 | 4.0 | 0.00 | 0.00 | 0.00 | 51 | 1009.9 |
| 20260902090155 | 63 | 166 | 0.0 | 4.0 | 0.00 | 0.00 | 0.00 | 49 | 1009.9 |
| 20260902085139 | 64 | 166 | 1.0 | 6.0 | 0.00 | 0.00 | 0.00 | 47 | 1009.8 |
| 20260902084202 | 64 | 169 | 4.0 | 6.0 | 0.00 | 0.00 | 0.00 | 47 | 1009.8 |
| 20260902083146 | 64 | 174 | 4.0 | 8.0 | 0.00 | 0.00 | 0.00 | 46 | 1009.8 |
| 20260902082153 | 65 | 174 | 6.0 | 8.0 | 0.00 | 0.00 | 0.00 | 46 | 1009.8 |
| 20260902081215 | 65 | 175 | 6.0 | 7.0 | 0.00 | 0.00 | 0.00 | 46 | 1009.8 |
| 20260902080152 | 65 | 172 | 4.0 | 7.0 | 0.00 | 0.00 | 0.00 | 46 | 1009.8 |
| 20260902075141 | 65 | 171 | 5.0 | 7.0 | 0.00 | 0.00 | 0.00 | 45 | 1009.9 |
| 20260902074145 | 64 | 171 | 3.0 | 5.0 | 0.00 | 0.00 | 0.00 | 47 | 1009.9 |
| 20260902073148 | 63 | 171 | 4.0 | 5.0 | 0.00 | 0.00 | 0.00 | 49 | 1009.9 |
| 20260902072154 | 64 | 171 | 3.0 | 5.0 | 0.00 | 0.00 | 0.00 | 47 | 1009.9 |
| 20260902071139 | 65 | 171 | 4.0 | 5.0 | 0.00 | 0.00 | 0.00 | 45 | 1009.9 |
| 20260902070143 | 66 | 171 | 3.0 | 4.0 | 0.00 | 0.00 | 0.00 | 44 | 1009.9 |
| 20260902065148 | 66 | 171 | 3.0 | 6.0 | 0.00 | 0.00 | 0.00 | 44 | 1009.9 |
| 20260902064153 | 66 | 170 | 4.0 | 6.0 | 0.00 | 0.00 | 0.00 | 44 | 1009.9 |
| 20260902063151 | 66 | 170 | 2.0 | 5.0 | 0.00 | 0.00 | 0.00 | 44 | 1009.9 |
| 20260902062153 | 65 | 166 | 3.0 | 5.0 | 0.00 | 0.00 | 0.00 | 45 | 1009.9 |
| 20260902061138 | 65 | 165 | 4.0 | 7.0 | 0.00 | 0.00 | 0.00 | 47 | 1009.9 |
| 20260902060143 | 64 | 173 | 5.0 | 8.0 | 0.00 | 0.00 | 0.00 | 51 | 1009.9 |
| 20260902055208 | 62 | 197 | 3.0 | 5.0 | 0.00 | 0.00 | 0.00 | 57 | 1009.9 |
| 20260902054137 | 63 | 197 | 3.0 | 5.0 | 0.00 | 0.00 | 0.00 | 57 | 1009.8 |
| 20260902053138 | 64 | 197 | 4.0 | 5.0 | 0.00 | 0.00 | 0.00 | 55 | 1009.8 |
| 20260902052201 | 65 | 198 | 4.0 | 6.0 | 0.00 | 0.00 | 0.00 | 54 | 1009.7 |
| 20260902051200 | 68 | 203 | 3.0 | 4.0 | 0.00 | 0.00 | 0.00 | 48 | 1009.7 |
| 20260902050146 | 68 | 204 | 1.0 | 3.0 | 0.00 | 0.00 | 0.00 | 47 | 1009.7 |
| 20260902045147 | 68 | 204 | 2.0 | 5.0 | 0.00 | 0.00 | 0.00 | 48 | 1009.8 |
| 20260902044155 | 69 | 200 | 2.0 | 5.0 | 0.00 | 0.00 | 0.00 | 48 | 1009.9 |
| 20260902043207 | 69 | 198 | 2.0 | 7.0 | 0.00 | 0.00 | 0.00 | 48 | 1009.9 |
| 20260902042152 | 69 | 181 | 7.0 | 9.0 | 0.00 | 0.00 | 0.00 | 48 | 1009.8 |
| 20260902041139 | 69 | 175 | 8.0 | 13.0 | 0.00 | 0.00 | 0.00 | 48 | 1009.9 |
| 20260902040139 | 68 | 164 | 3.0 | 6.0 | 0.00 | 0.00 | 0.00 | 51 | 1009.9 |
| 20260902035138 | 66 | 126 | 2.0 | 4.0 | 0.00 | 0.00 | 0.00 | 54 | 1009.9 |
| 20260902034141 | 66 | 123 | 4.0 | 5.0 | 0.00 | 0.00 | 0.00 | 54 | 1009.7 |
| 20260902033149 | 68 | 121 | 2.0 | 3.0 | 0.00 | 0.00 | 0.00 | 50 | 1009.7 |
| 20260902032207 | 67 | 121 | 3.0 | 5.0 | 0.00 | 0.00 | 0.00 | 51 | 1009.5 |
| 20260902031214 | 67 | 121 | 4.0 | 7.0 | 0.00 | 0.00 | 0.00 | 51 | 1009.5 |
| 20260902030201 | 70 | 15 | 3.0 | 4.0 | 0.00 | 0.00 | 0.00 | 44 | 1009.5 |
| 20260902025138 | 72 | 11 | 0.0 | 1.0 | 0.00 | 0.09 | 0.00 | 39 | 1009.3 |
| 20260902024143 | 73 | 11 | 0.0 | 3.0 | 0.00 | 0.09 | 0.00 | 38 | 1009.0 |
| 20260902023208 | 74 | 9 | 0.0 | 6.0 | 0.00 | 0.09 | 0.00 | 36 | 1009.0 |
| 20260902022215 | 75 | 11 | 3.0 | 8.0 | 0.00 | 0.09 | 0.00 | 34 | 1008.8 |
| 20260902021200 | 75 | 5 | 4.0 | 7.0 | 0.00 | 0.09 | 0.00 | 30 | 1008.8 |
| 20260902020203 | 76 | 20 | 4.0 | 5.0 | 0.00 | 0.09 | 0.00 | 29 | 1008.8 |
| 20260902015139 | 76 | 21 | 3.0 | 5.0 | 0.00 | 0.09 | 0.00 | 30 | 1008.8 |
| 20260902014144 | 77 | 21 | 2.0 | 5.0 | 0.00 | 0.09 | 0.00 | 30 | 1008.8 |
| 20260902013145 | 78 | 22 | 3.0 | 5.0 | 0.00 | 0.09 | 0.00 | 29 | 1008.8 |
| 20260902012207 | 79 | 28 | 4.0 | 7.0 | 0.00 | 0.09 | 0.00 | 27 | 1008.7 |
| 20260902011152 | 80 | 29 | 5.0 | 9.0 | 0.00 | 0.09 | 0.00 | 27 | 1008.7 |
| 20260902010153 | 81 | 49 | 3.0 | 12.0 | 0.00 | 0.09 | 0.00 | 27 | 1008.7 |
| 20260902005154 | 81 | 34 | 3.0 | 7.0 | 0.00 | 0.09 | 0.00 | 26 | 1008.6 |
| 20260902004157 | 82 | 45 | 5.0 | 9.0 | 0.00 | 0.09 | 0.00 | 25 | 1008.7 |
| 20260902003142 | 82 | 38 | 5.0 | 17.0 | 0.00 | 0.09 | 0.00 | 24 | 1008.7 |
| 20260902002150 | 83 | 34 | 6.0 | 11.0 | 0.00 | 0.09 | 0.00 | 22 | 1008.6 |
| 20260902001213 | 83 | 25 | 8.0 | 11.0 | 0.00 | 0.09 | 0.00 | 22 | 1008.5 |
| 20260902000138 | 83 | 19 | 8.0 | 12.0 | 0.00 | 0.09 | 0.00 | 22 | 1008.5 |
| 20260901235205 | 85 | 19 | 5.0 | 9.0 | 0.00 | 0.09 | 0.00 | 20 | 1008.4 |
| 20260901234146 | 85 | 69 | 6.0 | 14.0 | 0.00 | 0.09 | 0.00 | 21 | 1008.4 |
| 20260901233147 | 85 | 16 | 6.0 | 12.0 | 0.00 | 0.09 | 0.00 | 20 | 1008.4 |
| 20260901232152 | 84 | 32 | 4.0 | 6.0 | 0.00 | 0.09 | 0.00 | 22 | 1008.6 |
| 20260901231151 | 83 | 21 | 4.0 | 8.0 | 0.00 | 0.09 | 0.00 | 21 | 1008.5 |
| 20260901230157 | 84 | 5 | 6.0 | 10.0 | 0.00 | 0.09 | 0.00 | 20 | 1008.5 |
| 20260901225145 | 86 | 15 | 3.0 | 11.0 | 0.00 | 0.09 | 0.00 | 20 | 1008.4 |
| 20260901224146 | 87 | 49 | 7.0 | 12.0 | 0.00 | 0.09 | 0.00 | 20 | 1008.5 |
| 20260901223210 | 86 | 57 | 6.0 | 11.0 | 0.00 | 0.09 | 0.00 | 20 | 1008.5 |
| 20260901222139 | 85 | 19 | 5.0 | 8.0 | 0.00 | 0.09 | 0.00 | 20 | 1008.6 |
| 20260901221215 | 84 | 35 | 4.0 | 9.0 | 0.00 | 0.09 | 0.00 | 21 | 1008.7 |
| 20260901220138 | 85 | 77 | 0.0 | 4.0 | 0.00 | 0.09 | 0.00 | 23 | 1008.7 |
| 20260901215145 | 86 | 76 | 3.0 | 11.0 | 0.00 | 0.09 | 0.00 | 20 | 1008.7 |
| 20260901214146 | 87 | 76 | 5.0 | 11.0 | 0.00 | 0.09 | 0.00 | 20 | 1008.8 |
| 20260901213140 | 87 | 40 | 3.0 | 6.0 | 0.00 | 0.09 | 0.00 | 19 | 1008.8 |
| 20260901212141 | 85 | 63 | 6.0 | 10.0 | 0.00 | 0.09 | 0.00 | 21 | 1009.0 |
| 20260901211204 | 84 | 5 | 5.0 | 9.0 | 0.00 | 0.09 | 0.00 | 23 | 1009.3 |
| 20260901210149 | 83 | 60 | 5.0 | 10.0 | 0.00 | 0.09 | 0.00 | 24 | 1009.3 |
| 20260901205154 | 82 | 40 | 3.0 | 9.0 | 0.00 | 0.09 | 0.00 | 25 | 1009.4 |
| 20260901204156 | 81 | 20 | 7.0 | 11.0 | 0.00 | 0.09 | 0.00 | 25 | 1009.5 |
| 20260901203159 | 81 | 5 | 6.0 | 11.0 | 0.00 | 0.09 | 0.00 | 25 | 1009.5 |
| 20260901202144 | 81 | 355 | 6.0 | 11.0 | 0.00 | 0.09 | 0.00 | 24 | 1009.7 |
| 20260901201150 | 81 | 342 | 5.0 | 10.0 | 0.00 | 0.09 | 0.00 | 22 | 1009.8 |
| 20260901200151 | 83 | 76 | 6.0 | 10.0 | 0.00 | 0.09 | 0.00 | 23 | 1009.8 |
| 20260901195213 | 83 | 360 | 4.0 | 6.0 | 0.00 | 0.09 | 0.00 | 23 | 1009.9 |
| 20260901194152 | 83 | 284 | 3.0 | 10.0 | 0.00 | 0.09 | 0.00 | 23 | 1010.0 |
| 20260901193154 | 83 | 180 | 1.0 | 6.0 | 0.00 | 0.09 | 0.00 | 22 | 1010.0 |
| 20260901192138 | 85 | 84 | 4.0 | 11.0 | 0.00 | 0.09 | 0.00 | 22 | 1010.2 |
| 20260901191146 | 84 | 219 | 4.0 | 15.0 | 0.00 | 0.09 | 0.00 | 21 | 1010.5 |
| 20260901190143 | 84 | 219 | 6.0 | 11.0 | 0.00 | 0.09 | 0.00 | 21 | 1010.5 |
| 20260901185147 | 84 | 199 | 6.0 | 12.0 | 0.00 | 0.09 | 0.00 | 22 | 1010.6 |
| 20260901184135 | 83 | 292 | 5.0 | 11.0 | 0.00 | 0.09 | 0.00 | 24 | 1010.6 |
| 20260901183139 | 82 | 196 | 5.0 | 12.0 | 0.00 | 0.09 | 0.00 | 25 | 1010.6 |
| 20260901182139 | 81 | 200 | 3.0 | 12.0 | 0.00 | 0.09 | 0.00 | 23 | 1010.8 |
| 20260901181148 | 81 | 242 | 1.0 | 12.0 | 0.00 | 0.09 | 0.00 | 27 | 1011.2 |
| 20260901180154 | 80 | 158 | 4.0 | 9.0 | 0.00 | 0.09 | 0.00 | 27 | 1011.2 |
| 20260901175152 | 79 | 223 | 2.0 | 9.0 | 0.00 | 0.09 | 0.00 | 28 | 1011.4 |
| 20260901174157 | 79 | 188 | 4.0 | 9.0 | 0.00 | 0.09 | 0.00 | 32 | 1011.7 |
| 20260901173140 | 79 | 169 | 3.0 | 8.0 | 0.00 | 0.09 | 0.00 | 29 | 1011.7 |
| 20260901172206 | 78 | 155 | 5.0 | 10.0 | 0.00 | 0.09 | 0.00 | 33 | 1011.8 |
| 20260901171146 | 77 | 192 | 6.0 | 9.0 | 0.00 | 0.09 | 0.00 | 32 | 1011.8 |
| 20260901170155 | 76 | 152 | 0.0 | 6.0 | 0.00 | 0.09 | 0.00 | 38 | 1011.8 |
| 20260901165155 | 74 | 172 | 2.0 | 10.0 | 0.00 | 0.09 | 0.00 | 41 | 1011.9 |
| 20260901164157 | 73 | 183 | 8.0 | 13.0 | 0.00 | 0.09 | 0.00 | 41 | 1011.8 |
| 20260901163142 | 70 | 194 | 6.0 | 13.0 | 0.00 | 0.09 | 0.00 | 45 | 1011.8 |
| 20260901162159 | 69 | 213 | 7.0 | 11.0 | 0.00 | 0.09 | 0.00 | 48 | 1011.8 |
| 20260901161143 | 69 | 218 | 8.0 | 13.0 | 0.00 | 0.09 | 0.00 | 48 | 1012.0 |